When you browse on this site, cookies collect data to enhance your experience and personalize the content and advertising you see.
Visit our Privacy Policy to learn more. By continuing to use the site, you agree to this use of cookies and data.
  • In Belgium
  • List of Countries
  • For 7 days
  • Water Temperature
  • Satellite Maps
  • Weather Map
  • Weather Widgets
  • user-avatar
    Login

    Hourly Weather Grachev Verh

    Today, 16 June, Sunday

    Time Temperature Precipitation Wind Pressure Humidity
    00:00 +17°C° 0 mm 4 mps 742 mmHg 95%
    01:00 +17°C° 0 mm 3 mps 742 mmHg 95%
    02:00 +17°C° 0 mm 3 mps 743 mmHg 95%
    03:00 +17°C° 0 mm 2 mps 743 mmHg 97%
    04:00 +17°C° 0 mm 3 mps 742 mmHg 96%
    05:00 +17°C° 0 mm 3 mps 742 mmHg 95%
    06:00 +17°C° 0 mm 3 mps 742 mmHg 94%
    07:00 +18°C° 0 mm 3 mps 742 mmHg 92%
    08:00 +18°C° 0 mm 3 mps 743 mmHg 90%
    09:00 +19°C° 0 mm 3 mps 743 mmHg 90%
    10:00 +19°C° 0 mm 2 mps 743 mmHg 84%
    11:00 +20°C° 0 mm 2 mps 743 mmHg 78%
    12:00 +21°C° 0 mm 2 mps 743 mmHg 72%
    13:00 +23°C° 0.1 mm 2 mps 743 mmHg 69%
    14:00 +24°C° 0.1 mm 1 mps 743 mmHg 65%
    15:00 +24°C° 0.1 mm 1 mps 743 mmHg 62%
    16:00 +24°C° 0.3 mm 1 mps 743 mmHg 66%
    17:00 +24°C° 0.3 mm 2 mps 743 mmHg 69%
    18:00 +23°C° 0.3 mm 2 mps 743 mmHg 73%
    19:00 +21°C° 0 mm 2 mps 743 mmHg 78%
    20:00 +19°C° 0 mm 2 mps 743 mmHg 83%
    21:00 +19°C° 0 mm 1 mps 743 mmHg 88%
    22:00 +18°C° 0 mm 1 mps 744 mmHg 89%
    23:00 +18°C° 0 mm 1 mps 744 mmHg 90%

    Tomorrow, 17 June, Monday

    Time Temperature Precipitation Wind Pressure Humidity
    00:00 +16°C° 0 mm 1 mps 744 mmHg 91%
    01:00 +16°C° 0 mm 1 mps 744 mmHg 92%
    02:00 +15°C° 0 mm 1 mps 744 mmHg 93%
    03:00 +15°C° 0 mm 1 mps 744 mmHg 94%
    04:00 +15°C° 0 mm 1 mps 744 mmHg 93%
    05:00 +16°C° 0 mm 1 mps 744 mmHg 92%
    06:00 +16°C° 0 mm 1 mps 744 mmHg 91%
    07:00 +19°C° 0 mm 1 mps 744 mmHg 85%
    08:00 +20°C° 0 mm 1 mps 745 mmHg 80%
    09:00 +22°C° 0 mm 1 mps 745 mmHg 74%
    10:00 +23°C° 0 mm 1 mps 745 mmHg 69%
    11:00 +24°C° 0 mm 1 mps 745 mmHg 63%
    12:00 +25°C° 0 mm 1 mps 745 mmHg 58%
    13:00 +25°C° 0 mm 1 mps 745 mmHg 57%
    14:00 +25°C° 0 mm 1 mps 745 mmHg 56%
    15:00 +26°C° 0 mm 1 mps 744 mmHg 55%
    16:00 +26°C° 0 mm 1 mps 744 mmHg 59%
    17:00 +25°C° 0 mm 2 mps 744 mmHg 62%
    18:00 +25°C° 0 mm 2 mps 744 mmHg 66%
    19:00 +23°C° 0 mm 1 mps 744 mmHg 70%
    20:00 +22°C° 0 mm 1 mps 744 mmHg 75%
    21:00 +20°C° 0 mm 1 mps 744 mmHg 79%
    22:00 +20°C° 0 mm 1 mps 744 mmHg 81%
    23:00 +19°C° 0 mm 1 mps 744 mmHg 82%

    Day after tomorrow, 18 June, Tuesday

    Time Temperature Precipitation Wind Pressure Humidity
    00:00 +17°C° 0 mm 0 mps 744 mmHg 83%
    01:00 +18°C° 0 mm 1 mps 744 mmHg 84%
    02:00 +18°C° 0 mm 1 mps 744 mmHg 86%
    03:00 +16°C° 0 mm 1 mps 744 mmHg 87%
    04:00 +18°C° 0 mm 1 mps 744 mmHg 86%
    05:00 +19°C° 0 mm 1 mps 744 mmHg 85%
    06:00 +19°C° 0 mm 1 mps 744 mmHg 85%
    07:00 +21°C° 0 mm 1 mps 744 mmHg 81%
    08:00 +21°C° 0 mm 2 mps 744 mmHg 77%
    09:00 +24°C° 0 mm 2 mps 744 mmHg 73%
    10:00 +25°C° 0.1 mm 2 mps 744 mmHg 70%
    11:00 +25°C° 0.1 mm 2 mps 743 mmHg 66%
    12:00 +26°C° 0.1 mm 2 mps 743 mmHg 62%
    13:00 +26°C° 0.3 mm 3 mps 743 mmHg 66%
    14:00 +26°C° 0.3 mm 3 mps 743 mmHg 69%
    15:00 +26°C° 0.3 mm 3 mps 742 mmHg 73%
    16:00 +26°C° 0.5 mm 3 mps 742 mmHg 75%
    17:00 +25°C° 0.5 mm 3 mps 742 mmHg 78%
    18:00 +25°C° 0.5 mm 3 mps 742 mmHg 81%
    19:00 +24°C° 0.1 mm 3 mps 742 mmHg 85%
    20:00 +21°C° 0.1 mm 3 mps 742 mmHg 90%
    21:00 +20°C° 0.1 mm 3 mps 742 mmHg 94%
    22:00 +19°C° 0 mm 3 mps 742 mmHg 94%
    23:00 +19°C° 0 mm 3 mps 743 mmHg 94%

    19 June, Wednesday

    Time Temperature Precipitation Wind Pressure Humidity
    00:00 +19°C° 0 mm 3 mps 743 mmHg 94%
    01:00 +18°C° 0 mm 3 mps 743 mmHg 95%
    02:00 +18°C° 0 mm 3 mps 743 mmHg 95%
    03:00 +17°C° 0 mm 3 mps 743 mmHg 95%
    04:00 +17°C° 0 mm 3 mps 743 mmHg 94%
    05:00 +17°C° 0 mm 3 mps 744 mmHg 92%
    06:00 +18°C° 0 mm 3 mps 744 mmHg 90%
    07:00 +19°C° 0 mm 3 mps 744 mmHg 85%
    08:00 +21°C° 0 mm 3 mps 744 mmHg 80%
    09:00 +22°C° 0 mm 3 mps 745 mmHg 75%
    10:00 +24°C° 0 mm 3 mps 745 mmHg 68%
    11:00 +25°C° 0 mm 4 mps 745 mmHg 62%
    12:00 +27°C° 0 mm 4 mps 745 mmHg 56%
    13:00 +27°C° 0 mm 4 mps 745 mmHg 56%
    14:00 +27°C° 0 mm 3 mps 745 mmHg 56%
    15:00 +27°C° 0 mm 3 mps 745 mmHg 56%
    16:00 +27°C° 0 mm 3 mps 745 mmHg 60%
    17:00 +26°C° 0 mm 3 mps 745 mmHg 64%
    18:00 +26°C° 0 mm 3 mps 745 mmHg 68%
    19:00 +24°C° 0 mm 3 mps 745 mmHg 72%
    20:00 +21°C° 0 mm 3 mps 745 mmHg 75%
    21:00 +19°C° 0 mm 2 mps 745 mmHg 79%
    22:00 +18°C° 0 mm 2 mps 745 mmHg 80%
    23:00 +18°C° 0 mm 2 mps 746 mmHg 82%

    20 June, Thursday

    Time Temperature Precipitation Wind Pressure Humidity
    00:00 +18°C° 0 mm 1 mps 746 mmHg 83%
    01:00 +16°C° 0 mm 1 mps 746 mmHg 85%
    02:00 +16°C° 0 mm 2 mps 746 mmHg 87%
    03:00 +16°C° 0 mm 2 mps 746 mmHg 89%
    04:00 +16°C° 0 mm 2 mps 746 mmHg 88%
    05:00 +17°C° 0 mm 2 mps 746 mmHg 87%
    06:00 +17°C° 0 mm 2 mps 747 mmHg 86%
    07:00 +19°C° 0 mm 2 mps 747 mmHg 80%
    08:00 +21°C° 0 mm 2 mps 747 mmHg 74%
    09:00 +24°C° 0 mm 2 mps 747 mmHg 68%
    10:00 +25°C° 0 mm 2 mps 747 mmHg 63%
    11:00 +26°C° 0 mm 3 mps 747 mmHg 58%
    12:00 +27°C° 0 mm 3 mps 747 mmHg 54%
    13:00 +27°C° 0 mm 3 mps 747 mmHg 53%
    14:00 +28°C° 0 mm 3 mps 747 mmHg 51%
    15:00 +28°C° 0 mm 3 mps 747 mmHg 50%
    16:00 +28°C° 0 mm 2 mps 747 mmHg 55%
    17:00 +27°C° 0 mm 2 mps 747 mmHg 59%
    18:00 +27°C° 0 mm 2 mps 747 mmHg 63%
    19:00 +25°C° 0 mm 2 mps 747 mmHg 67%
    20:00 +23°C° 0 mm 2 mps 747 mmHg 70%
    21:00 +21°C° 0 mm 2 mps 747 mmHg 74%
    22:00 +20°C° 0 mm 2 mps 747 mmHg 77%
    23:00 +19°C° 0 mm 2 mps 747 mmHg 80%

    21 June, Friday

    Time Temperature Precipitation Wind Pressure Humidity
    00:00 +19°C° 0 mm 1 mps 747 mmHg 83%
    01:00 +19°C° 0 mm 1 mps 747 mmHg 84%
    02:00 +19°C° 0 mm 1 mps 747 mmHg 85%
    03:00 +18°C° 0 mm 1 mps 747 mmHg 86%
    04:00 +19°C° 0 mm 1 mps 748 mmHg 85%
    05:00 +19°C° 0 mm 1 mps 748 mmHg 84%
    06:00 +20°C° 0 mm 1 mps 748 mmHg 83%
    07:00 +21°C° 0 mm 2 mps 748 mmHg 78%
    08:00 +23°C° 0 mm 2 mps 748 mmHg 72%
    09:00 +25°C° 0 mm 2 mps 748 mmHg 67%
    10:00 +26°C° 0 mm 2 mps 748 mmHg 62%
    11:00 +27°C° 0 mm 2 mps 748 mmHg 57%
    12:00 +28°C° 0 mm 2 mps 748 mmHg 53%
    13:00 +28°C° 0 mm 2 mps 748 mmHg 52%
    14:00 +29°C° 0 mm 2 mps 748 mmHg 50%
    15:00 +29°C° 0 mm 2 mps 748 mmHg 49%
    16:00 +29°C° 0 mm 2 mps 748 mmHg 52%
    17:00 +28°C° 0 mm 1 mps 747 mmHg 55%
    18:00 +28°C° 0 mm 1 mps 747 mmHg 58%
    19:00 +26°C° 0 mm 1 mps 747 mmHg 61%
    20:00 +24°C° 0 mm 1 mps 747 mmHg 64%
    21:00 +22°C° 0 mm 1 mps 747 mmHg 67%
    22:00 +22°C° 0 mm 1 mps 747 mmHg 70%
    23:00 +21°C° 0 mm 1 mps 748 mmHg 73%
    Show more